This demonstration page uses our WeatherBlox Daily Observations layout. Learn more.

Left ArrowRight Arrow

36.17497, -115.13722

Hourly Observations for January 14, 2016

Temp ( °F °C ) Dew Point ( °F °C ) Humidity (%) Winds ( mph kmh ) Pressure ( in mb ) Visibility ( mi km ) Precip ( " mm )
12:53 am 00:53 Clear 39 3.9 24 -4.4 55 55 N 12 19 30.12 1020 10 16 N/A
1:53 am 01:53 Clear 38 3.3 24 -4.4 57 57 WNW 8 13 30.13 1020 10 16 N/A
2:53 am 02:53 Clear 35 1.7 23 -5 61 61 NNW 7 11 30.13 1020 10 16 N/A
3:53 am 03:53 Clear 37 2.8 24 -4.4 59 59 WNW 3 6 30.12 1020 10 16 N/A
4:53 am 04:53 Clear 34 1.1 23 -5 64 64 E 6 9 30.14 1021 10 16 N/A
5:53 am 05:53 Clear 32 undefined 23 -5 69 69 WNW 5 7 30.16 1022 10 16 N/A
6:53 am 06:53 Sunny 35 1.7 23 -5 61 61 WNW 3 6 30.18 1022 10 16 N/A
7:53 am 07:53 Sunny 38 3.3 24 -4.4 57 57 N 6 9 30.18 1022 10 16 N/A
8:53 am 08:53 Sunny 42 5.6 25 -3.9 51 51 NE 3 6 30.19 1022 10 16 N/A
9:53 am 09:53 Sunny 45 7.2 25 -3.9 46 46 N N/A 30.21 1023 10 16 N/A
10:53 am 10:53 Sunny 48 8.9 25 -3.9 41 41 ESE 3 6 30.18 1022 10 16 N/A
11:53 am 11:53 Sunny 50 10 24 -4.4 36 36 N N/A 30.15 1021 10 16 N/A
12:53 pm 12:53 Sunny 52 11.1 24 -4.4 34 34 SE 3 6 30.11 1020 10 16 N/A
1:53 pm 13:53 Sunny 53 11.7 25 -3.9 34 34 SE 5 7 30.09 1019 10 16 N/A
2:53 pm 14:53 Sunny 54 12.2 25 -3.9 33 33 SE 6 9 30.08 1019 10 16 N/A
3:53 pm 15:53 Sunny 53 11.7 24 -4.4 32 32 SSE 7 11 30.08 1019 10 16 N/A
4:53 pm 16:53 Clear 50 10 25 -3.9 38 38 E 5 7 30.09 1019 10 16 N/A
5:53 pm 17:53 Clear 49 9.4 25 -3.9 39 39 N N/A 30.09 1019 10 16 N/A
6:53 pm 18:53 Clear 47 8.3 27 -2.8 46 46 N N/A 30.08 1019 10 16 N/A
7:53 pm 19:53 Clear 44 6.7 27 -2.8 51 51 NW 3 6 30.07 1018 10 16 N/A
8:53 pm 20:53 Clear 42 5.6 28 -2.2 58 58 NW 3 6 30.04 1017 10 16 N/A
9:53 pm 21:53 Clear 41 5 26 -3.3 55 55 WNW 5 7 30.02 1017 10 16 N/A
10:53 pm 22:53 Clear 40 4.4 28 -2.2 63 63 NNW 6 9 30.02 1017 10 16 N/A
11:53 pm 23:53 Clear 38 3.3 28 -2.2 68 68 NNW 3 6 29.98 1015 10 16 N/A

Powered by AerisWeather